Regional Weather Roundup
Issued by NWS

Home | Current Version | Previous Version | Graphics & Text | Print | Product List | Glossary On
Versions: 1 2 3 4 5 6 7 8 9 10 11 12 13 14 15 16 17 18 19 20 21 22 23 24 25 26 27 28 29 30 31 32 33 34 35 36 37 38 39 40 41 42 43 44 45 46 47 48 49 50
000
ASUS45 KCYS 061410
RWRWY

WYOMING REGIONAL WEATHER ROUNDUP
NATIONAL WEATHER SERVICE CHEYENNE WY
800 AM MDT MON JUL 06 2015

NOTE:  "FAIR" INDICATES FEW OR NO CLOUDS BELOW 12,000 FEET
WITH NO SIGNIFICANT WEATHER AND/OR OBSTRUCTIONS TO VISIBILITY.

WYZ001-061500-
YELLOWSTONE NATIONAL PARK

CITY           SKY/WX    TMP DP  RH WIND       PRES   REMARKS
LK YELLOWSTONE   N/A     50  47  89 CALM      30.38S
W YELLOWSTONE  NOT AVBL

$$
WYZ002>013-054>058-071-098>099-061500-
NORTHERN WYOMING

CITY           SKY/WX    TMP DP  RH WIND       PRES   REMARKS
JACKSON        CLOUDY    55  54  94 CALM      30.30S
CODY           CLOUDY    54  46  76 N5        30.29S
GREYBULL       CLOUDY    57  50  77 NW12      30.25R
WORLAND        PTSUNNY   57  52  83 N3        30.26S HAZE
SHERIDAN       LGT RAIN  54  52  93 N7        30.28R FOG
BUFFALO        FOG       51  51 100 N6        30.30R VSB 3/4
GILLETTE       CLOUDY    54  50  86 N7        30.27R
HULETT         CLOUDY    54  52  94 N3        30.28R
NEWCASTLE      PTSUNNY   57  48  72 NW12      30.24R

$$
WYZ014>020-022>026-101>103-061500-
CENTRAL WYOMING

CITY           SKY/WX    TMP DP  RH WIND       PRES   REMARKS
BIG PINEY      PTSUNNY   56  52  86 S6        30.33R
PINEDALE       CLOUDY    54  52  94 SE5       30.34R
DUBOIS         FAIR      54  48  82 E6        30.33R
LANDER         CLOUDY    57  53  86 CALM      30.28R
RIVERTON       CLOUDY    55  53  93 NE9       30.29R
CASPER         CLOUDY    55  51  86 NE8       30.29R FOG
DOUGLAS        CLOUDY    56  53  90 N8        30.28R FOG

$$
WYZ021-027>030-104>119-061500-
SOUTHERN WYOMING

CITY           SKY/WX    TMP DP  RH WIND       PRES   REMARKS
EVANSTON       FAIR      57  52  83 E9        30.31R
KEMMERER       CLOUDY    55  50  82 NW5       30.34R
FORT BRIDGER   CLOUDY    55  55 100 N3        30.34R
ROCK SPRINGS   PTSUNNY   58  53  84 E7        30.31S
DIXON          CLOUDY    58  53  85 CALM      30.32R
RAWLINS        CLOUDY    55  51  86 CALM      30.32R
SARATOGA       CLOUDY    55  54  94 NW5       30.31S
LARAMIE        LGT RAIN  52  51  97 NE8       30.31R
CHEYENNE       LGT RAIN  55  54  96 NE12      30.27R FOG
TORRINGTON     CLOUDY    58  54  86 NE9       30.22R FOG
PINE BLUFFS    CLOUDY    57  55  94 N13       30.23R

$$


USA.gov is the U.S. government's official web portal to all federal, state and local government web resources and services.